Crossville, TN

2:38 AM CDT on October 19, 2017 (GMT -0500)
Crossville Memorial-Whitson

Weather History for KCSV - December, 2012

Change the Weather History Date:

Monday, December 3, 2012

  Actual Average Record
Temperature  
Mean Temperature 60 °F 42 °F  
Max Temperature 68 °F 50 °F 71 °F (1982)
Min Temperature 51 °F 33 °F 14 °F (1989)
Degree Days  
Heating Degree Days 5    
Month to date heating degree days 23  
Since 1 July heating degree days 988  
Cooling Degree Days 0    
Month to date cooling degree days 0  
Year to date cooling degree days 1156  
Growing Degree Days 10 (Base 50)    
Moisture  
Dew Point 47 °F    
Average Humidity 63    
Maximum Humidity 77    
Minimum Humidity 48    
Precipitation  
Precipitation 0.00 in 0.18 in 1.57 in (1990)
Month to date precipitation 0.00 0.53  
Year to date precipitation 41.77 50.67  
Sea Level Pressure  
Sea Level Pressure 30.23 in    
Wind  
Wind Speed 4 mph (South)    
Max Wind Speed 13 mph    
Max Gust Speed 18 mph    
Visibility 10 miles    
Events      
T = Trace of Precipitation, MM = Missing Value Source: NWS Daily Summary

Daily Weather History Graph

Daily Weather History Graph

Search for Another Location

Airport or City:

Trip Planner

Search our weather history database for the weather conditions in past years. The results will help you decide how hot, cold, wet, or windy it might be!

Date:

Astronomy

Dec. 03, 2012 Rise Set
Actual Time 6:34 AM CST 4:26 PM CST
Civil Twilight 6:06 AM CST 4:54 PM CST
Nautical Twilight 5:34 AM CST 5:26 PM CST
Astronomical Twilight 5:03 AM CST 5:57 PM CST
Moon 9:06 PM CST (12/3) 10:01 AM CST (12/3)
Length of Visible Light 10h 48m
Length of Day
9h 51m
Waning Gibbous, 78% of the Moon is Illuminated
Dec 3
Waning Gibbous
Dec 6
Last Quarter
Dec 13
New
Dec 19
First Quarter
Dec 28
Full

Hourly Weather History & Observations

Time (CST) Temp. Dew Point Humidity Pressure Visibility Wind Dir Wind Speed Gust Speed Precip Events Conditions
12:53 AM 55.9 °F 48.0 °F 75% 30.24 in 10.0 mi SSW 4.6 mph - N/A   Clear
1:53 AM 54.0 °F 46.9 °F 77% 30.25 in 10.0 mi SSW 4.6 mph - N/A   Clear
2:53 AM 55.0 °F 46.9 °F 74% 30.25 in 10.0 mi Calm Calm - N/A   Clear
3:53 AM 54.0 °F 46.9 °F 77% 30.25 in 10.0 mi Variable 3.5 mph - N/A   Clear
4:53 AM 54.0 °F 46.9 °F 77% 30.25 in 10.0 mi SW 3.5 mph - N/A   Clear
5:53 AM 53.1 °F 46.9 °F 80% 30.26 in 10.0 mi SSW 3.5 mph - N/A   Clear
6:53 AM 53.1 °F 46.0 °F 77% 30.27 in 10.0 mi SW 4.6 mph - N/A   Clear
7:53 AM 55.0 °F 46.9 °F 74% 30.27 in 10.0 mi Calm Calm - N/A   Clear
8:53 AM 61.0 °F 48.0 °F 62% 30.28 in 10.0 mi South 4.6 mph - N/A   Scattered Clouds
9:53 AM 64.0 °F 48.0 °F 56% 30.27 in 10.0 mi South 8.1 mph - N/A   Clear
10:53 AM 64.0 °F 48.0 °F 56% 30.25 in 10.0 mi SSW 6.9 mph - N/A   Partly Cloudy
11:53 AM 66.9 °F 48.0 °F 51% 30.21 in 10.0 mi Variable 3.5 mph - N/A   Partly Cloudy
12:53 PM 68.0 °F 48.0 °F 49% 30.20 in 10.0 mi South 5.8 mph - N/A   Clear
1:53 PM 66.9 °F 48.9 °F 52% 30.19 in 10.0 mi South 10.4 mph 17.3 mph N/A   Clear
2:53 PM 66.0 °F 46.0 °F 48% 30.19 in 10.0 mi South 9.2 mph - N/A   Clear
3:53 PM 64.0 °F 46.9 °F 54% 30.20 in 10.0 mi South 6.9 mph - N/A   Clear
4:53 PM 61.0 °F 46.0 °F 58% 30.21 in 10.0 mi South 5.8 mph - N/A   Clear
5:53 PM 60.1 °F 45.0 °F 57% 30.22 in 10.0 mi South 3.5 mph - N/A   Clear
6:53 PM 57.9 °F 46.0 °F 65% 30.23 in 10.0 mi South 3.5 mph - N/A   Clear
7:53 PM 55.0 °F 46.0 °F 72% 30.22 in 10.0 mi Calm Calm - N/A   Clear
8:53 PM 55.0 °F 46.0 °F 72% 30.20 in 10.0 mi South 3.5 mph - N/A   Clear
9:53 PM 55.0 °F 46.0 °F 72% 30.20 in 10.0 mi South 3.5 mph - N/A   Clear
10:53 PM 55.0 °F 46.0 °F 72% 30.21 in 10.0 mi Calm Calm - N/A   Clear